User: anonymous   Login
Location: Lawrence Hall of Science
(37.8785°N, 122.2415°W)
Time: 23:10:48
(UTC-07:00)
Language:

ARGOS - Orbit

View from above orbital plane
View from above orbital plane
View from above satellite
View from above satellite

Ground track
Ground track

The orbit data is extracted from the following two-line orbital elements,

1 25634U 99008A   17081.76799778 -.00000028 +00000-0 +71648-5 0  9995
2 25634 098.6292 146.8482 0011342 097.2424 263.0042 14.19306795935739
Epoch (UTC): 22 March 2017 18:25:55
Eccentricity: 0.0011342
inclination: 98.6292°
perigee height: 819 km
apogee height: 836 km
right ascension of ascending node: 146.8482°
argument of perigee: 97.2424°
revolutions per day: 14.19306795
mean anomaly at epoch: 263.0042°
orbit number at epoch: 93573

The dashed part of the orbit path shows where the satellite is in the earth's shadow,  

DLR